,QQQ.P,SPY.P,STOXXIEX.DE,TLT.P,GLD.P
2023-08-28,0.0872496245142849,0.0877599021988771,0.0849161000524687,0.0867158025582878,0.0888565074550723
2023-08-29,0.0896997338473425,0.0901084258945782,0.0878761473467205,0.088577541462253,0.0909197848750949
2023-08-30,0.092288346581965,0.0920638434007357,0.0893294960637813,0.0901460274961321,0.0924636578898398
2023-09-06,0.0871264314061625,0.0863813072022026,0.0848367612070797,0.0838286509397842,0.0857753308548184
2023-09-07,0.0864719794398645,0.0858945126920908,0.0844408317112301,0.0841806814343479,0.0854798507597773
2023-09-08,0.0885491151391361,0.0883477235209014,0.087076362478215,0.0870553235709604,0.0882862161239725
2023-09-11,0.0890389765534863,0.0888389253647988,0.0876941101738385,0.0877424101282982,0.0886734441402497
2023-09-12,0.0884391117789403,0.0877863131678587,0.0866138900656167,0.0854882541501688,0.0872116118795481
2023-09-13,0.0876874649479863,0.0875240166114445,0.0863310563448822,0.0862245274320712,0.0869797883877109
2023-09-14,0.0898053677372905,0.0893971828949077,0.0880578552612134,0.0879206403775742,0.088532860287915
2023-09-15,0.092784505414381,0.0924158929730716,0.0903152726005208,0.0895001436249618,0.0907861036481174
2023-09-18,0.094637745614478,0.0944460268886681,0.0937811564093738,0.0923619619636914,0.0948655414682032
2023-09-19,0.0962995906953725,0.0961634570002006,0.0944748254427263,0.0944715228031635,0.0971023473564449
2023-09-20,0.0976987968903149,0.0975742185316012,0.0961158975065254,0.0953989540290426,0.0986380688998046
2023-09-21,0.0975973529173716,0.0979835656325448,0.0986582984646747,0.0969380397573094,0.1000434652273461
2023-09-22,0.0987933340690798,0.0994018598598303,0.0998147603790678,0.0974583639677155,0.1024492428984228
2023-09-25,0.0999109647258138,0.1002386908505807,0.1005149421442203,0.0992712916520694,0.103876035558704
2023-09-26,0.0968458926904352,0.0971163513545418,0.0956524878034052,0.0934295875575895,0.09970276834497804
2023-09-27,0.0942551571810937,0.0945735173650987,0.0939358172920204,0.0920085354684096,0.0977524557265101
2023-09-28,0.0884127248471949,0.0884943784562801,0.08714223442277601,0.0856047297287727,0.0903017617494222
2023-09-29,0.0798703574610037,0.0797541102167141,0.0788032968446044,0.0769568309321467,0.0805095541894687
2023-10-02,0.0720638717246535,0.0716580711018702,0.0724890763138993,0.0716930786268196,0.0703312928590925
2023-10-03,0.073863744659228,0.0728191567143112,0.0723399485462415,0.0714216058942168,0.0707486653376173
2023-10-04,0.0736692721335821,0.0729556015574735,0.0724507102366498,0.0709497967936738,0.0716354208752171
2023-10-05,0.0740306012507678,0.0728435338994901,0.0718420607424198,0.07133739126079201,0.0709999063979074
2023-10-06,0.0726332163965908,0.0716607379474151,0.0712031872875812,0.069847477468092,0.0697453086513029
2023-10-09,0.0747188321659625,0.0733522518591844,0.0727364885739321,0.0698177006729526,0.0709175100573315
2023-10-11,0.0763995729634324,0.0750868250674755,0.0752482970546716,0.0721455579321635,0.0729558970888511
2023-10-12,0.0782940624683996,0.0767165263792773,0.0767900309902124,0.0749277404521732,0.074777405297226
2023-10-13,0.0757250938637796,0.0740181621802629,0.0741739682858077,0.0708517185997412,0.072368411648348
2023-10-16,0.0717245848271206,0.0706410965000823,0.0700670166601312,0.0691175911339547,0.0716438319990722
2023-10-17,0.072111694838143,0.0709440303660672,0.0701842023269855,0.0675933300352135,0.0708555252757943
2023-10-18,0.0724877970750012,0.0715392572943848,0.0708777332433167,0.0674122609560612,0.0715857863634972
2023-10-19,0.0736785918338472,0.0727650609820505,0.0719763554195531,0.0689063618856038,0.0748636045254496
2023-10-20,0.0758227940989365,0.0748825693940645,0.0740792353725638,0.0700504460458919,0.0786791048960683
2023-10-23,0.0761556416911603,0.0754100789318747,0.0746445875618702,0.0718012666783077,0.0804381667689118
2023-10-24,0.0775216152755373,0.0763904913184433,0.07598640520158001,0.0738155919567155,0.0813497652257339
2023-10-25,0.07695456781311401,0.0756526146088801,0.0747358380673175,0.0734593884754036,0.0799523893005215
2023-10-26,0.0753485425960302,0.0748634197498237,0.0749533206080049,0.0721009277595765,0.0806082344533953
2023-10-27,0.0754702164617764,0.0755375545706158,0.0759199887625858,0.0747792270353178,0.0824497899193456
2023-10-30,0.0761532716453431,0.0754693733091509,0.0758051508989168,0.0747153289701727,0.0837128310478743
2023-10-31,0.0774676020154319,0.0768686550874907,0.0769333956382213,0.0748984127352669,0.0837823255552618
2023-11-01,0.0808625634765332,0.0810619855001894,0.0803892332295481,0.0788493521064802,0.0787234138405292
2023-11-02,0.0837315732994363,0.0833697062508513,0.0821431541234035,0.08166930137699299,0.0798578053210219
2023-11-03,0.0846565375076319,0.0843910461441493,0.0835734522118022,0.08301344788757599,0.0795797336649903
2023-11-06,0.0857951117819135,0.0853041959337574,0.0847265901188019,0.0837358782358592,0.080003635512179
2023-11-07,0.0814633664240193,0.08085814966409499,0.0799804660784063,0.0784484658146218,0.075070210534341
2023-11-08,0.0737202797086729,0.0727034686137997,0.0712236623742973,0.0713168963246145,0.0670286955703557
2023-11-09,0.0699155057739898,0.0689480173152432,0.0678240397375117,0.0687351705791522,0.0628867042146351
2023-11-10,0.0659653839637896,0.0650457824551174,0.0651229614165826,0.0638582174912493,0.0600319933597356
2023-11-13,0.0657951126145873,0.0644500587424946,0.0626187321384293,0.0626430154266617,0.057929279591650014
2023-11-14,0.0673853695515342,0.0661406768177802,0.0649353443582151,0.06423783655491701,0.0598370592395463
2023-11-15,0.0695880372462263,0.0681676753300913,0.0674277979020643,0.0664183651554436,0.0610367685523701
2023-11-16,0.0717729424863671,0.0703965411573684,0.0699293609400289,0.0675457395383332,0.0627335341954017
2023-11-17,0.0712180842181516,0.0698815844052543,0.0689849517222234,0.0677329788658917,0.0629005351239587
2023-11-20,0.0714758831762786,0.0702054081331705,0.0699955302913521,0.0682883633271322,0.0631066365488654
2023-11-21,0.0703655077222035,0.0688055218294134,0.0685600717706157,0.0667915666854889,0.0612756030582099
2023-11-22,0.0687025109369544,0.0674333463739223,0.0672418191196321,0.0655952839503028,0.0608346255580765
2023-11-24,0.0666868627050496,0.0654313920883409,0.0647905067671541,0.0636271482810877,0.0585509260666233
2023-11-27,0.0680355522140261,0.0668952335085629,0.0670807196022775,0.0642380467071481,0.060135201726105
2023-11-28,0.0690291137424982,0.0678143231454325,0.0678501964280899,0.0663569061095797,0.0614828919018875
2023-11-29,0.0705491226322288,0.0691877377950428,0.0692303706078408,0.0677449065321933,0.063501488061211
2023-11-30,0.07191149102559,0.0705555804395551,0.0709139317427226,0.0699716052729047,0.0648983676654788
2023-12-01,0.0711311859259277,0.071610627244956,0.0715587048888645,0.0720041349855058,0.0711876314817858
2023-12-04,0.0723285428759816,0.07303457474512401,0.0728460324913694,0.0735261042369293,0.0734227760796178
2023-12-05,0.0740662654092535,0.0751073652817855,0.0751210196693956,0.0757092861317435,0.0742644697632706
2023-12-06,0.074345500012708,0.0751810342950763,0.075489624565709,0.0774523277942352,0.0740709580079649
2023-12-07,0.0748373882736983,0.0758119852025978,0.0767150142991505,0.0794545327356421,0.0752713026709564
2023-12-08,0.0767890808415581,0.0772728239144684,0.0773216615117945,0.0799027159056939,0.0762663968324759
2023-12-11,0.0783233366498583,0.07884671186818902,0.0790577882993792,0.0805336864850293,0.0764529545221305
2023-12-12,0.0799801392596893,0.0801247817813256,0.0800199692067519,0.0813495338007669,0.07653657921983
2023-12-13,0.0815886998567882,0.0814505884251844,0.0811060512638986,0.0825378053161072,0.0774071004235285
2023-12-14,0.0824655864747849,0.0824317330242186,0.0809949885258209,0.0842601135233524,0.0790174158250476
2023-12-15,0.0825808864965122,0.0828817100664117,0.0831748963861263,0.0864310476221741,0.0796588779103898
2023-12-18,0.083053023453827,0.0825609424832223,0.0827272036472699,0.0867368795571128,0.0790721730558037
2023-12-19,0.0815415579243403,0.0810818883455197,0.0804785082837433,0.0840231443267931,0.0775722522290102
2023-12-20,0.0799439278690774,0.079575940689538,0.0793235658782497,0.0823724736302401,0.0761869606914587
2023-12-21,0.0776438469428646,0.0773766353552968,0.0783214264011696,0.081730818360586,0.0747131964028108
2023-12-22,0.0748221540734281,0.0743875312639246,0.0745189431165323,0.0774207544133067,0.0716554196822697
2023-12-27,0.07639426608479201,0.0759876233798262,0.0762539063551551,0.0785684900328205,0.07337386212571001
2023-12-28,0.0778277121633608,0.0772960760988716,0.0778971936959517,0.0810710225746434,0.0750939420128564
2023-12-29,0.0790203892078404,0.0785617977984202,0.0789958622257412,0.0818593580152224,0.0758510942366143
2024-01-02,0.0791448899053793,0.0793330769647782,0.0791394768712956,0.0782435508385599,0.0789469531300433
2024-01-03,0.0794225456502965,0.0805266521410639,0.0799782619292787,0.0794234534584343,0.0803960118765296
2024-01-04,0.0800913715095056,0.0813988979107016,0.0804715225510604,0.0812411534883978,0.0812529045075509
2024-01-05,0.0809737083469456,0.0824694698795181,0.0827909224487371,0.0813456572625039,0.08267054323648401
2024-01-08,0.081717467488934,0.083223333690112,0.0833695280829802,0.0812265124064895,0.0833253402024831
2024-01-09,0.0811800087387092,0.0821542771191725,0.0813727230302542,0.0797931254812682,0.080463360395992
2024-01-10,0.0803530781973489,0.0810439768914739,0.0798251004751559,0.0783802833240716,0.0795219029251346
2024-01-11,0.0813717392964606,0.0819779149473177,0.0805180428723048,0.0784543627608053,0.0798029303903007
2024-01-12,0.0826459198537231,0.083062233779738,0.0807615925878318,0.0799321957320164,0.0810537585093975
2024-01-16,0.0835960268759457,0.0840260622616271,0.0825552541540819,0.0806533001898647,0.0827400141606065
2024-01-17,0.0855829100217738,0.0857157275637736,0.0831986665201213,0.0811151537485822,0.0839110374745867
2024-01-18,0.0866037481504609,0.0867495787856687,0.0835589069716957,0.0824391960439886,0.0844570887880509
2024-01-19,0.0884237319714465,0.0880647740732633,0.0845664819309164,0.0821890610881301,0.0856814440611044
2024-01-22,0.09000874394846838,0.08902631520954761,0.08444552816841333,0.08232589508600953,0.0858061648551616
2024-01-23,0.09086819975071704,0.08995963092233833,0.08590520790790936,0.08350747394221525,0.08619590370417064
2024-01-24,0.09271461247375863,0.09168135805632753,0.08661891339715963,0.0841858822037898,0.08793166499710517
2024-01-25,0.09443195615219377,0.09295696389922994,0.08938525329691335,0.0847464761022242,0.08832330259233158
2024-01-26,0.09542380435982503,0.09434230348319404,0.0898573707995012,0.08615822735786001,0.0895086212227901
2024-01-29,0.09454120596751836,0.0939016541237718,0.09080301649157277,0.08564568152526215,0.08914190761551287
2024-01-30,0.09519800619103816,0.09433452487281388,0.09013147629058292,0.08640226783636902,0.08947634071099192
2024-01-31,0.0955729860126818,0.09528269474460004,0.09162879521101626,0.08819407249441705,0.09057050568510028
2024-02-01,0.09090702817863176,0.09173937342264407,0.09408240368368627,0.09489692406093453,0.09339280751824176
2024-02-02,0.09156353258192068,0.09248680455225024,0.09292670329373927,0.09608793433826283,0.0939039405425402
2024-02-05,0.09451281008567797,0.09487710374822818,0.09413942072493432,0.09543835427867778,0.0944261609721454
2024-02-06,0.09564033262609076,0.09581790660644494,0.09472477249544596,0.09478348753867548,0.09518323719956084
2024-02-07,0.09583272470654199,0.09647177873663963,0.09588655065099908,0.09606383502011462,0.09605460597843968
2024-02-08,0.09790619964059268,0.09838039197944652,0.09679408117410264,0.0967144606224432,0.09711897702235944
2024-02-09,0.0996684350622154,0.1000125038610042,0.09834631889069934,0.09767299389047436,0.09859757339018208
2024-02-12,0.10162975265417876,0.10156324234645504,0.0994403980577747,0.09843919249241516,0.09916514849648436
2024-02-13,0.10268838686201613,0.10299085415244257,0.10131412853359684,0.09997313861574014,0.10034044162627374
2024-02-14,0.10419271155361476,0.10469575642456716,0.10293140114435728,0.10127048994273004,0.10199984792552948
2024-02-15,0.10586605829506923,0.10618422421180967,0.10401945927941884,0.10228136019350496,0.10245723026400144
2024-02-16,0.10566877728662807,0.1063860922402023,0.10459169559408996,0.10242078921732428,0.10263407494903114
2024-02-20,0.10576691801899764,0.1069290374592103,0.10646721958143812,0.10278280867931427,0.1040538848855622
2024-02-21,0.10660592212652577,0.1079965300444952,0.10861385022876496,0.10443984697123014,0.1063152832317565
2024-02-22,0.10776330719357707,0.10972493216148864,0.10988781284481047,0.10531849834389136,0.10792477427282447
2024-02-23,0.11083619927266196,0.11189481915520136,0.11085777693467774,0.10573715637808212,0.10787353084776344
2024-02-26,0.1112881379774482,0.11277865829862085,0.1121350345159023,0.10788977502597964,0.10926471697206293
2024-02-27,0.1112366365657927,0.11235219434861916,0.11202076511947393,0.10753209551680176,0.10900840423439613
2024-02-28,0.1119761892336662,0.11304000076262576,0.11270237781654407,0.10727415377358177,0.1093560325081664
2024-02-29,0.1120005641104528,0.11352999733303724,0.11279603667517805,0.10854337986510897,0.11017430428488892
2024-03-01,0.11173277518034327,0.11161642859203638,0.11068432177490012,0.11286158488820458,0.11213978578124048
2024-03-04,0.11213741036055627,0.11139285640780897,0.1103050573680288,0.11189592434625227,0.11297096485216712
2024-03-05,0.11295367907602805,0.11253026313458593,0.11181652712573194,0.1127644542341374,0.11609495602500587
2024-03-06,0.11133970591539122,0.11180337418349702,0.1120702066283436,0.1147301413757671,0.11721085188599925
2024-03-07,0.1103137904242278,0.11061403616140336,0.11114631217922916,0.11358835892530092,0.11632722671701805
2024-03-08,0.11054436164766064,0.11027954214848487,0.11120185036891854,0.11202664522364372,0.11548825304861708
2024-03-11,0.10610229439061324,0.1067681815193269,0.10853728013989504,0.10895526042412623,0.11343700430170375
2024-03-12,0.10159437386951202,0.10252473009647198,0.10370136817608333,0.10464929864024314,0.10922230655576698
2024-03-13,0.10308671501002983,0.1036544257031503,0.10462841877413498,0.10377926672704517,0.10805529248376652
2024-03-14,0.10328555419940226,0.10450654565918324,0.10615416335780196,0.104316104433749,0.10987922218592676
2024-03-15,0.1038544838525011,0.10512520411188617,0.10603652475285956,0.10353248942494953,0.11028622729318736
2024-03-18,0.1044897271291971,0.1059957477511982,0.10753800065604947,0.10541550561458997,0.1119574534693125
2024-03-19,0.10597761080568613,0.10725408476628327,0.10806022781944158,0.10567174639636297,0.1127977124891422
2024-03-20,0.10623345618725563,0.10783931804806407,0.10804582222416252,0.10596912916601414,0.11265674736503944
2024-03-21,0.10781430457698453,0.1091547000479892,0.1083007150791242,0.10626724802190288,0.11433171840797984
2024-03-22,0.10878037177727323,0.1099960803562901,0.10995709686987892,0.10692896947115464,0.11471424517021285
2024-03-25,0.11060026760270356,0.1115242329940212,0.11125571206408744,0.10967081166627628,0.11559418743224052
2024-03-26,0.1113005691446984,0.11229780312321523,0.11265026624122396,0.11020717609742957,0.11709130472125948
2024-03-27,0.11080416139439288,0.11194285553170244,0.11254204066539863,0.1104034141453291,0.1173153594274343
2024-03-28,0.11125510360699532,0.11293415249710274,0.1127094065583804,0.11147719675062298,0.11821770725271626
2024-04-02,0.11175511588705493,0.11366655377732512,0.1135822607448798,0.11212677788519873,0.12054231850702365
2024-04-03,0.11484532066702395,0.1148902374846488,0.11458324358337328,0.11266773671825113,0.12029250595941846
2024-04-04,0.11599132934605072,0.11590664920434166,0.11644471251511752,0.11349042889251808,0.12228694852862065
2024-04-05,0.1164251077393589,0.11671810501227815,0.11939668632543092,0.11650168711990808,0.12394983505913035
2024-04-08,0.1187802236925336,0.11889181250250876,0.11874403376769865,0.11579706712721895,0.12709132171732546
2024-04-09,0.12019167039010872,0.12033636694012055,0.12120480814724036,0.1171384948433217,0.12936434403932304
2024-04-10,0.12212751767783245,0.12196203281040945,0.12194838281953994,0.11971279315364107,0.13168038638859733
2024-04-11,0.12432126359278013,0.12402861908701054,0.124242408811212,0.12029320035433565,0.13398593710064666
2024-04-12,0.1266302209066213,0.1252310866953003,0.12353179298276365,0.11998861027923916,0.13688094238414975
2024-04-15,0.12652481592803372,0.12540982508774778,0.12485952844335928,0.12249278188988587,0.13715467082266602
2024-04-16,0.1268413524050771,0.1262482100889482,0.1273231391294978,0.12294006751030515,0.14244067336071184
2024-04-17,0.12800793590339135,0.12715927245942352,0.12659682156984312,0.12321624525946688,0.14390635754302172
2024-04-18,0.1241558567743172,0.1241230841417216,0.12438079952570134,0.1223330650713513,0.14026540180869398
2024-04-19,0.11724819697407612,0.1176516007141598,0.11876901184957846,0.11559533580903884,0.13368147016349333
2024-04-22,0.11412008236423447,0.11589900263048562,0.11805954889545002,0.11531579232266186,0.1332656669291825
2024-04-23,0.11106413169875576,0.11269000709321915,0.11440426118819758,0.11092536029292603,0.12522178944120604
2024-04-24,0.1082129373695565,0.1094614463547732,0.11166264185531496,0.1064837516472973,0.11991218900498532
2024-04-25,0.10819398832407487,0.10905684972133756,0.11074183268812847,0.1043282094583316,0.11930336308486712
2024-04-26,0.11106070279339812,0.11206514660109997,0.11368483055783885,0.10793465607320776,0.1237956814619233
2024-04-29,0.11396160852466025,0.11428274577765644,0.1158787251596783,0.10965873720958452,0.125466041089653
2024-04-30,0.11565242802563593,0.11592647942700555,0.11760866209923025,0.11174764126836327,0.12656388629999327
2024-05-02,0.11760885485010933,0.11793411758218195,0.11905293646991995,0.11940952747583533,0.11679113925909533
2024-05-03,0.11713713435507528,0.11751047138835953,0.11756055782408867,0.11915978000192501,0.11635668962496505
2024-05-06,0.11912625749533935,0.11862006849583676,0.11864814505692907,0.1199879344476468,0.11592478270778105
2024-05-07,0.12122031337798005,0.12061391191916447,0.12040610918992695,0.1212350563402267,0.11789567415887195
2024-05-08,0.1207835024347904,0.12030096656388388,0.12116021473267798,0.1215575027809883,0.11691981175416916
2024-05-09,0.12078021233174148,0.1203858724390217,0.12136073372019406,0.12090769781397134,0.11664694476104825
2024-05-10,0.12024586537671213,0.1202787235467626,0.12132979142277535,0.12065397891972796,0.1177038163352686
2024-05-13,0.11301823905199708,0.1129284296550653,0.11447119781101375,0.11255443464493506,0.11126407967834463
2024-05-14,0.10322047256972956,0.1029125243224102,0.10472736577185693,0.10281389863373973,0.10024647621931852
2024-05-15,0.10106490485431233,0.10057425896223796,0.10227892643661676,0.10055575897828453,0.09834657496945076
2024-05-16,0.10319779577380092,0.10238210864124583,0.10379460580238636,0.10251902076392007,0.10015945362563862
2024-05-17,0.10391677577114136,0.103090441912705,0.10471881573895896,0.10334568090882956,0.100666874470354
2024-05-20,0.0960913996657892,0.09550870415654288,0.0968392326907324,0.09495847207283002,0.09466592901061674
2024-05-21,0.09525939142209933,0.09412823164048152,0.09559634929303423,0.09319191729990096,0.0935652641091464
2024-05-22,0.09443584115572892,0.0933627218138164,0.09430999601064892,0.0926834366225538,0.09244123597998813
2024-05-23,0.0928195198749063,0.091526643738748,0.09221854197328222,0.0912225769766392,0.08921505475073889
2024-05-24,0.09317637136441508,0.09160748183390267,0.09295024985957773,0.09138819863122036,0.08815684127175957
2024-05-28,0.09654699872838518,0.09464816734470938,0.0953936696485612,0.09406349111811628,0.09056819481639712
2024-05-29,0.0989369735776208,0.0967105163014553,0.0973986675056387,0.09467944911964936,0.0934492399612375
2024-05-30,0.10176291340448357,0.0994578760281834,0.09927204247177013,0.0969017652618564,0.09588122872887338
2024-05-31,0.1025229229430994,0.1006270804896682,0.10197108484400386,0.0995937801842414,0.09784143961912437
2024-06-03,0.09607263774195182,0.09733438032842036,0.09838369221165827,0.09873631466102936,0.0967136663482612
2024-06-04,0.09571929099578806,0.09674062039418027,0.09822426613298534,0.09920240413176504,0.09690189313352947
2024-06-05,0.0987141794549272,0.09961738784580812,0.10060309886849124,0.10323063691245636,0.09877727492709036
2024-06-06,0.1026076629212028,0.10269319171936384,0.10342643947398167,0.10590596676655856,0.10182315722081477
2024-06-07,0.10550749162774717,0.1056276418969121,0.10710908131256723,0.10887587441287107,0.10550884371932116
2024-06-10,0.10200123792289607,0.10209459189448512,0.10276555868463352,0.1034073488265274,0.09846048736421337
2024-06-11,0.09698716312644284,0.09699456049724198,0.09630379841248543,0.0972755660611861,0.09410882933027102
2024-06-12,0.09967304654365887,0.09923532126185017,0.09728990791374982,0.10029960495301513,0.09632599020617727
2024-06-13,0.10306819377642992,0.10211422061399432,0.10135624674910396,0.1031713371862082,0.0985747154465652
2024-06-14,0.10687400078573382,0.10552379510813156,0.10253354680724107,0.10793120035472263,0.10083286090063913
2024-06-17,0.10993995613754334,0.10805492847522592,0.10215709841791487,0.11138244432884532,0.10452598218340364
2024-06-18,0.11279487947995268,0.1103932782595668,0.1036496687987454,0.11174935041100996,0.10539471658226733
2024-06-20,0.1123845955065069,0.11023254909585334,0.10416528761066042,0.11234919032966804,0.10539522085907456
2024-06-21,0.11120965822318092,0.10965154658076312,0.10448367677885048,0.11131500763413399,0.10643771199023294
2024-06-24,0.11060664708810283,0.10886131100679428,0.1030110391459093,0.1110417832847472,0.10450919638997763
2024-06-25,0.11044710290312107,0.1097593290824046,0.10554729667999688,0.11270540653685072,0.10613332405910794
2024-06-26,0.1132519371815973,0.11169789135153067,0.10640003774521233,0.11452260687791399,0.10705961863234886
2024-06-27,0.1158694495761946,0.11417677623982425,0.10781667106795446,0.1152357997866609,0.10829051851528501
2024-06-28,0.1175117856735406,0.11569828327313013,0.10896527785567747,0.11702568217620793,0.11080294400160667
2024-07-01,0.11437148336703727,0.11441542236721128,0.11442086736063566,0.11306143973046327,0.11599761045551328
2024-07-02,0.11639380287455225,0.11599051012316065,0.11620634666423027,0.1120532373757954,0.1176586171821907
2024-07-03,0.11842011288274044,0.11756462947645605,0.11666098744027725,0.11362984436718085,0.11845268593776125
2024-07-05,0.11924193584598095,0.11793282535779966,0.11800375629380268,0.11496965415504305,0.11962930279111468
2024-07-08,0.1209136612397338,0.11902254102020735,0.11920469302904835,0.1162966976728936,0.12166146358506714
2024-07-09,0.12181335029910845,0.11974484800041828,0.11985943685303205,0.11710755734444342,0.12074244375944253
2024-07-10,0.12088260511927387,0.11885944503714785,0.11752328568615986,0.11561526557609098,0.11993626602615735
2024-07-11,0.118175255598414,0.11613865183227087,0.1149321647861294,0.11223744838759744,0.11646730193062765
2024-07-12,0.1133542670663335,0.11291876362476598,0.11386334233434195,0.11116810505366813,0.1162487616102928
2024-07-15,0.10897008290570198,0.10858932642278417,0.11015119993499327,0.1066331691856328,0.11102127671177098
2024-07-16,0.10953186167486346,0.10915153153053504,0.10930746380029556,0.1057187873112105,0.11164916474160402
2024-07-17,0.11028581511914712,0.11052120560154437,0.10936739620030372,0.10788100245862604,0.1146230587734479
2024-07-18,0.1093383418052162,0.11130259430441332,0.11176618863812612,0.11023551380390324,0.11653137174458865
2024-07-19,0.10688970337998012,0.10849623916199153,0.10930530174378904,0.1075064610293949,0.11374241208816892
